Regional Weather Roundup
Issued by NWS

Home | Current Version | Previous Version | Text Only | Print | Product List | Glossary Off
Versions: 1 2 3 4 5 6 7 8 9 10 11 12 13 14 15 16 17 18 19 20 21 22 23 24 25 26 27 28 29 30 31 32 33 34 35 36 37 38 39 40 41 42 43 44 45 46 47 48 49 50

000
ASUS43 KTOP 221859
RWRKS

WEATHER ROUNDUP FOR KANSAS
NATIONAL WEATHER SERVICE GOODLAND KS
200 PM CDT SAT APR 22 2017

NOTE:  "FAIR" INDICATES FEW OR NO CLOUDS BELOW 12,000 FEET WITH NO
SIGNIFICANT WEATHER AND/OR OBSTRUCTIONS TO VISIBILITY.

KSZ001>006-013>018-027>032-041>047-222000-
NORTHWEST KANSAS

CITY           SKY/WX    TMP DP  RH WIND       PRES   REMARKS
GOODLAND       MOSUNNY   53  33  46 N8        30.29F
HAYS           PTSUNNY   57  33  40 N8        30.26F
HILL CITY      MOSUNNY   59  32  36 N9        30.28F
RUSSELL        CLOUDY    58  37  45 N10       30.24F
$$

KSZ061>065-074>080-084>089-222000-
SOUTHWEST KANSAS

CITY           SKY/WX    TMP DP  RH WIND       PRES   REMARKS
DODGE CITY     PTSUNNY   55  38  52 N16       30.26F
ELKHART          N/A     52  31  44 N16         N/A
GARDEN CITY    PTSUNNY   56  32  40 N18       30.27F
GREAT BEND     CLOUDY    56  36  47 N14G22    30.25F
LIBERAL        PTSUNNY   55  34  44 N14G21    30.28F
$$

KSZ066>073-081>083-090>101-222000-
SOUTHEAST KANSAS

CITY           SKY/WX    TMP DP  RH WIND       PRES   REMARKS
CHANUTE        CLOUDY    55  39  54 N14       30.12F
COFFEYVILLE    CLOUDY    53  41  63 N18       30.12F
HUTCHINSON     CLOUDY    57  38  48 N10       30.22F
MEDICINE LODGE   N/A     57  36  45 N16G23    30.21R
NEWTON         CLOUDY    57  40  52 N16       30.19
PARSONS        CLOUDY    54  37  52 N16G26    30.13F
WICHITA INTL   CLOUDY    57  37  47 N17       30.19F
WICHITA JABRA  CLOUDY    57  39  51 N18       30.18F
WICHITA MCCONL CLOUDY    55  37  50 N17G23    30.18F
WINFIELD       CLOUDY    54  40  59 N15       30.18F
$$

KSZ007>012-019>026-033>040-048>060-102>105-222000-
NORTHEAST KANSAS

CITY           SKY/WX    TMP DP  RH WIND       PRES   REMARKS
CONCORDIA      MOSUNNY   61  38  42 MISG      30.23F
EMPORIA        CLOUDY    59  37  44 N15G24    30.15F
LAWRENCE       SUNNY     65  34  31 NE22G31   30.14F
MANHATTAN      MOSUNNY   63  36  36 NE16G24   30.19F
OLATHE IND     SUNNY     63  33  32 N20G29    30.12F
OLATHE EXE     SUNNY     62  31  31 NE15G23   30.12F
SALINA         CLOUDY    62  39  42 N14       30.22F
TOPEKA BILLARD MOSUNNY   64  38  38 NE18G25   30.15F
TOPEKA FORBES  MOSUNNY   65  36  34 N18G26    30.15F
$$




USA.gov is the U.S. government's official web portal to all federal, state and local government web resources and services.